sat.trackr.live / text

‹ back to catalog

ONEWEB-0323

NORAD 49106 · 2021-075AH

PAYLOAD ACTIVE UNKNOWN

§ Identity

Operator
Country
UK
Launch date
2021-08-21
Launch site
TYMSC
Launch vehicle
Mass (kg)
RCS (m²)

Purposes: comms

External: N2YO · Heavens-Above · Gunter

§ Orbital elements

Epoch: 2026-09-09T17:46:00.759648Z

Period
109.72 min
Inclination
87.8995°
Eccentricity
0.0002042
Mean motion
13.12443540 rev/d
Perigee alt
1,212.2 km
Apogee alt
1,215.3 km
Semi-major
7,591.9 km
B*
3.6922e-4
RAAN
333.8660°
Arg perigee
116.0495°
Mean anomaly
244.0844°
Rev number
24,564

§ Raw data

ONEWEB-03231 49106U 21075AH  26252.74028657  .00000146  00000+0  36922-3 0  99962 49106  87.8995 333.8660 0002042 116.0495 244.0844 13.12443540245645

JSON: /api/v1/satellites/49106 · /tle

For live sub-satellite position, see the globe view (requires WebGL).

§ Visibility from observer

Set your observer location to see the next 7 days of passes ≥ 10°. The values pass through the URL so the page stays shareable.

No JS? Fill the form by hand. The geolocation button needs JavaScript.